Regional Weather Roundup
Issued by NWS

Home | Current Version | Previous Version | Graphics & Text | Print | Product List | Glossary On
Versions: 1 2 3 4 5 6 7 8 9 10 11 12 13 14 15 16 17 18 19 20 21 22 23 24 25 26 27 28
000
ASUS45 KCYS 240710
RWRWY

WYOMING REGIONAL WEATHER ROUNDUP
NATIONAL WEATHER SERVICE CHEYENNE WY
100 AM MDT WED MAY 24 2017

NOTE:  "FAIR" INDICATES FEW OR NO CLOUDS BELOW 12,000 FEET
WITH NO SIGNIFICANT WEATHER AND/OR OBSTRUCTIONS TO VISIBILITY.

WYZ001-240800-
YELLOWSTONE NATIONAL PARK

CITY           SKY/WX    TMP DP  RH WIND       PRES   REMARKS
LK YELLOWSTONE   N/A     34  32  92 CALM      30.09F
W YELLOWSTONE  NOT AVBL

$$
WYZ002>013-054>058-071-098>099-240800-
NORTHERN WYOMING

CITY           SKY/WX    TMP DP  RH WIND       PRES   REMARKS
JACKSON        FAIR      46  36  66 CALM      30.03F
CODY           FAIR      58  38  47 NW6       29.85F
GREYBULL       FAIR      54  31  41 SE5       29.83F
WORLAND        FAIR      51  36  56 SE13      29.84F
SHERIDAN       FAIR      46  39  76 S3        29.79F
BUFFALO        FAIR      48  36  63 W3        29.85F
GILLETTE       FAIR      48  37  65 S13       29.85F
HULETT         FAIR      45  34  65 S3        29.88F
NEWCASTLE      FAIR      43  34  70 S10       29.95F

$$
WYZ014>020-022>026-101>103-240800-
CENTRAL WYOMING

CITY           SKY/WX    TMP DP  RH WIND       PRES   REMARKS
BIG PINEY      FAIR      39  33  79 N9        30.09F WCI  33
PINEDALE       FAIR      41  32  70 CALM      30.09F
DUBOIS         FAIR      45  32  61 NW13      30.02F
LANDER         FAIR      49  35  58 W9        29.93F
RIVERTON       FAIR      46  41  82 NW10      29.93F
CASPER         FAIR      43  37  79 W7        29.93F
DOUGLAS        FAIR      41  35  79 SE8       29.94F

$$
WYZ021-027>030-104>119-240800-
SOUTHERN WYOMING

CITY           SKY/WX    TMP DP  RH WIND       PRES   REMARKS
EVANSTON       FAIR      50  30  46 S7        30.12F
KEMMERER         N/A     48  37  66 W8        30.12F
FORT BRIDGER   FAIR      56  27  32 SW15      30.14F
ROCK SPRINGS   FAIR      53  39  59 SW12      30.07F
DIXON            N/A     41  32  72 CALM      30.12F
RAWLINS        FAIR      41  30  65 S3        30.04F
SARATOGA       FAIR      37  32  81 CALM      30.08F
LARAMIE        FAIR      31  28  89 SE8       30.05F WCI  23
CHEYENNE       FAIR      36  32  85 W6        30.04F WCI  31
TORRINGTON     FAIR      44  37  76 SE3       29.97F
PINE BLUFFS    FAIR      34  34 100 MISG      30.02F

$$




USA.gov is the U.S. government's official web portal to all federal, state and local government web resources and services.